Regional Weather Roundup
Issued by NWS

Home | Current Version | Previous Version | Graphics & Text | Print | Product List | Glossary On
Versions: 1 2 3 4 5 6 7 8 9 10 11 12 13 14 15 16 17 18 19 20 21 22 23 24 25 26 27 28 29 30 31 32 33 34 35 36 37 38 39 40 41 42 43 44 45 46 47 48 49 50
000
ASUS44 KMEG 180610
RWRTN
TENNESSEE HOURLY STATE WEATHER ROUNDUP
NATIONAL WEATHER SERVICE MEMPHIS TN
100 AM CDT FRI APR 18 2014

TNZ002-004-019-021-049-052-054-088>092-180700-
WEST TENNESSEE

CITY           SKY/WX    TMP DP  RH WIND       PRES   REMARKS
MEMPHIS INTL   CLOUDY    57  44  62 CALM      30.22R
NWS MEMPHIS      N/A     53 N/A N/A MISG        N/A
JACKSON        CLOUDY    50  44  80 CALM      30.24R
DYERSBURG      FAIR      54  39  58 CALM      30.25R
UNION CITY     CLEAR     46  45  93 CALM      30.23R
PARIS          FAIR      48  37  65 SE3       30.24S
LEXINGTON      CLOUDY    52  45  76 CALM      30.24R
SAVANNAH       CLOUDY    59  44  57 CALM      30.25R
$$

TNZ008-025-027-028-033-062-065-066-180700-
NORTH MIDDLE TENNESSEE

CITY           SKY/WX    TMP DP  RH WIND       PRES   REMARKS
NASHVILLE      CLOUDY    53  44  71 S3        30.28R
DICKSON        CLOUDY    52  39  62 CALM      30.25S
PORTLAND       FAIR      48  39  71 S3        30.26S
CLARKSVILLE    FAIR      50  42  74 SE3       30.25S
SMYRNA         FAIR      51  44  77 CALM      30.29R
MURFREESBORO   CLOUDY    54  44  68 S3        30.28R
COOKEVILLE     CLEAR     50  43  76 CALM      30.28R
LIVINGSTON     FAIR      54  38  54 CALM      30.29R
GALLATIN       FAIR      49  42  76 CALM      30.29R
CROSSVILLE     FAIR      52  38  58 S6        30.31R
$$

TNZ061-075-076-078-094-096-097-180700-
SOUTH MIDDLE TENNESSEE

CITY           SKY/WX    TMP DP  RH WIND       PRES   REMARKS
LEWISBURG      CLOUDY    49  45  86 CALM      30.28R
FAYETTEVILLE   MOCLDY    56  41  57 SE9       30.29R
TULLAHOMA      CLEAR     55  39  54 SE5       30.31R
WINCHESTER     CLEAR     55  39  54 SE12      30.30R
MCMINNVILLE    CLOUDY    57  39  51 S3        30.30R
COLUMBIA       CLOUDY    55  48  76 CALM      30.26R
SHELBYVILLE    FAIR      55  43  62 SE7       30.30R
$$

TNZ017-018-042-046-047-180700-
NORTHEAST TENNESSEE

CITY           SKY/WX    TMP DP  RH WIND       PRES   REMARKS
TRI CITIES     FAIR      43  26  51 CALM      30.36S
ELIZABETHTON   CLEAR     48  21  34 CALM      30.37F
$$

TNZ012-013-036-069-073-074-180700-
CENTRAL EAST TENNESSEE

CITY           SKY/WX    TMP DP  RH WIND       PRES   REMARKS
KNOXVILLE      CLOUDY    52  38  58 CALM      30.30R
OAK RIDGE      FAIR      50  40  68 CALM      30.32R
$$

TNZ083-085-099-180700-
SOUTHEAST TENNESSEE

CITY           SKY/WX    TMP DP  RH WIND       PRES   REMARKS
CHATTANOOGA    FAIR      57  39  51 SW5       30.31S
$$

SKY/WX REPORTED AS FAIR MEANS FEW OR NO CLOUDS BELOW
12 THOUSAND FEET.




USA.gov is the U.S. government's official web portal to all federal, state and local government web resources and services.